GW2412 Weather Reports


time (UTC)temp
F
wind
direction
speed
knots
gust
knots
rain 1hr
in
rain 24hr
in
rain mn
in
humidity
%
barometer
mb
20260504050509 52 10 25.2 33.0 0.00 0.00 0.00 1 1010.2
20260504045510 52 29 23.5 33.0 0.00 0.00 0.00 1 1009.9
20260504045014 52 27 23.5 33.0 0.00 0.00 0.00 1 1009.9
20260504044528 52 23 24.3 33.9 0.00 0.00 0.00 1 1010.0
20260504044010 52 30 25.2 39.1 0.00 0.00 0.00 1 1009.9
20260504043510 53 30 26.9 39.1 0.00 0.00 0.00 1 1009.5
20260504043030 54 28 24.3 33.0 0.00 0.00 0.00 1 1009.7
20260504042510 55 23 23.5 33.0 0.00 0.00 0.00 1 1009.5
20260504042011 56 19 22.6 30.4 0.00 0.00 0.00 1 1009.5
20260504041534 56 44 20.0 29.5 0.00 0.00 0.00 1 1009.5
20260504041009 57 34 17.4 26.1 0.00 0.00 0.00 1 1009.7
20260504040509 57 35 17.4 25.2 0.00 0.00 0.00 1 1009.7
20260504040030 57 38 13.9 24.3 0.00 0.00 0.00 1 1009.4
20260504035509 57 28 12.2 24.3 0.00 0.00 0.00 1 1009.6
20260504035010 57 30 11.3 17.4 0.00 0.00 0.00 1 1009.5
20260504034539 57 355 11.3 17.4 0.00 0.00 0.00 1 1009.2
20260504034013 58 27 7.8 16.5 0.00 0.00 0.00 1 1009.1
20260504033509 57 344 9.6 22.6 0.00 0.00 0.00 1 1008.8
20260504033030 57 19 16.5 24.3 0.00 0.00 0.00 1 1008.9
20260504032512 57 27 18.2 24.3 0.00 0.00 0.00 1 1008.6
20260504032010 57 23 16.5 24.3 0.00 0.00 0.00 1 1008.3
20260504031528 57 30 18.2 26.1 0.00 0.00 0.00 1 1008.3
20260504031009 58 32 20.9 26.1 0.00 0.00 0.00 1 1008.6
20260504030510 58 34 17.4 23.5 0.00 0.00 0.00 1 1008.3
20260504030036 58 45 17.4 26.9 0.00 0.00 0.00 1 1008.3
20260504025510 58 29 18.2 26.9 0.00 0.00 0.00 1 1008.2
20260504025017 58 46 15.6 23.5 0.00 0.00 0.00 1 1008.6
20260504024530 58 52 16.5 26.9 0.00 0.00 0.00 1 1008.5
20260504024012 58 59 17.4 26.9 0.00 0.00 0.00 1 1008.2
20260504023512 59 42 16.5 22.6 0.00 0.00 0.00 1 1008.3
20260504023031 59 43 14.8 21.7 0.00 0.00 0.00 1 1008.1
20260504022512 60 46 15.6 21.7 0.00 0.00 0.00 1 1008.1
20260504022012 61 34 13.0 19.1 0.00 0.00 0.00 1 1008.3
20260504021537 61 44 12.2 16.5 0.00 0.00 0.00 1 1008.3
20260504021012 62 26 13.0 16.5 0.00 0.00 0.00 1 1008.3
20260504020512 62 40 9.6 13.0 0.00 0.00 0.00 1 1008.3
20260504020037 63 31 8.7 14.8 0.00 0.00 0.00 1 1008.4
20260504015512 63 24 11.3 14.8 0.00 0.00 0.00 1 1008.3
20260504015013 64 349 7.0 9.6 0.00 0.00 0.00 1 1008.6
20260504014527 64 342 7.0 11.3 0.00 0.00 0.00 1 1008.7
20260504014014 65 336 7.8 11.3 0.00 0.00 0.00 1 1008.8
20260504013515 65 329 8.7 11.3 0.00 0.00 0.00 1 1008.8
20260504013035 66 340 8.7 14.8 0.00 0.00 0.00 1 1008.8
20260504012510 66 333 11.3 15.6 0.00 0.00 0.00 1 1008.8
20260504012013 67 341 13.0 15.6 0.00 0.00 0.00 1 1008.8
20260504011530 67 355 12.2 16.5 0.00 0.00 0.00 1 1008.8
20260504011009 67 355 11.3 16.5 0.00 0.00 0.00 1 1008.7
20260504010512 68 340 13.0 16.5 0.00 0.00 0.00 1 1008.6
20260504010032 67 360 10.4 17.4 0.00 0.00 0.00 1 1008.7
20260504005512 68 342 13.0 17.4 0.00 0.00 0.00 1 1008.7
20260504005012 68 338 12.2 17.4 0.00 0.00 0.00 1 1008.8
20260504004541 68 344 11.3 18.2 0.00 0.00 0.00 1 1008.7
20260504004013 68 355 14.8 18.2 0.00 0.00 0.00 1 1008.9
20260504003510 69 348 9.6 19.1 0.00 0.00 0.00 1 1009.0
20260504003028 69 344 13.9 19.1 0.00 0.00 0.00 1 1008.9
20260504002511 69 340 11.3 17.4 0.00 0.00 0.00 1 1009.0
20260504002013 69 336 12.2 20.0 0.00 0.00 0.00 1 1009.0
20260504001535 69 312 10.4 21.7 0.00 0.00 0.00 1 1009.2
20260504001011 69 5 13.9 16.5 0.00 0.00 0.00 1 1009.0
20260504000513 69 337 10.4 18.2 0.00 0.00 0.00 1 1009.4
20260504000029 69 332 14.8 19.1 0.00 0.00 0.00 1 1009.4
20260503235509 69 347 11.3 20.9 0.00 0.00 0.00 1 1009.2
20260503235012 69 306 15.6 25.2 0.00 0.00 0.00 1 1009.3
20260503234535 69 352 13.0 17.4 0.00 0.00 0.00 1 1009.4
20260503234013 69 338 13.9 20.9 0.00 0.00 0.00 1 1009.4
20260503233510 69 329 13.0 20.9 0.00 0.00 0.00 1 1009.5
20260503233029 70 336 14.8 20.9 0.00 0.00 0.00 1 1009.3
20260503232513 70 317 13.9 20.0 0.00 0.00 0.00 1 1009.3
20260503232011 69 355 10.4 16.5 0.00 0.00 0.00 1 1009.4
20260503231530 70 317 11.3 20.9 0.00 0.00 0.00 1 1009.5
20260503231013 70 301 14.8 20.9 0.00 0.00 0.00 1 1009.5
20260503230511 69 324 12.2 23.5 0.00 0.00 0.00 1 1009.6
20260503230038 69 311 16.5 23.5 0.00 0.00 0.00 1 1009.5
20260503225513 70 352 13.0 20.0 0.00 0.00 0.00 1 1009.6
20260503225012 70 333 13.0 21.7 0.00 0.00 0.00 1 1009.5
20260503224528 70 300 13.9 21.7 0.00 0.00 0.00 1 1009.8
20260503224011 69 332 14.8 21.7 0.00 0.00 0.00 1 1009.8
20260503223512 70 336 14.8 22.6 0.00 0.00 0.00 1 1009.5
20260503223028 70 294 12.2 19.1 0.00 0.00 0.00 1 1009.7
20260503222512 69 299 13.0 20.0 0.00 0.00 0.00 1 1009.9
20260503222012 69 298 15.6 20.0 0.00 0.00 0.00 1 1009.6
20260503221534 69 355 13.0 20.0 0.00 0.00 0.00 1 1010.0
20260503221014 70 312 14.8 20.0 0.00 0.00 0.00 1 1009.9
20260503220512 69 321 13.9 20.0 0.00 0.00 0.00 1 1009.8
20260503220037 69 342 11.3 19.1 0.00 0.00 0.00 1 1010.1
20260503215513 69 360 11.3 27.8 0.00 0.00 0.00 1 1010.0
20260503215011 69 344 15.6 27.8 0.00 0.00 0.00 1 1010.2
20260503214546 70 287 13.0 24.3 0.00 0.00 0.00 1 1010.3
20260503214013 69 360 16.5 24.3 0.00 0.00 0.00 1 1010.4
20260503213512 69 336 13.0 20.9 0.00 0.00 0.00 1 1010.3
20260503213036 69 309 13.9 20.0 0.00 0.00 0.00 1 1010.6
20260503212513 69 306 9.6 20.0 0.00 0.00 0.00 1 1010.6
20260503212018 70 325 10.4 20.0 0.00 0.00 0.00 1 1010.6
20260503211534 69 335 13.9 17.4 0.00 0.00 0.00 1 1010.4
20260503211015 69 275 8.7 19.1 0.00 0.00 0.00 1 1010.7
20260503210513 69 318 14.8 19.1 0.00 0.00 0.00 1 1010.6
20260503210031 68 326 11.3 24.3 0.00 0.00 0.00 1 1010.8
20260503205517 68 322 13.9 24.3 0.00 0.00 0.00 1 1010.8
20260503205013 69 306 11.3 18.2 0.00 0.00 0.00 1 1011.0
20260503204536 69 294 12.2 26.1 0.00 0.00 0.00 1 1011.1
20260503204013 69 302 15.6 26.1 0.00 0.00 0.00 1 1010.9
20260503203513 68 309 15.6 21.7 0.00 0.00 0.00 1 1011.0
20260503203037 68 306 14.8 20.9 0.00 0.00 0.00 1 1010.9
20260503202516 68 330 8.7 20.9 0.00 0.00 0.00 1 1011.0
20260503202013 68 321 14.8 20.9 0.00 0.00 0.00 1 1010.9
20260503201537 68 275 13.9 18.2 0.00 0.00 0.00 1 1011.3
20260503201014 67 290 8.7 18.2 0.00 0.00 0.00 1 1011.5
20260503200513 67 257 13.0 16.5 0.00 0.00 0.00 1 1011.6
20260503200032 67 311 9.6 17.4 0.00 0.00 0.00 1 1011.6
20260503195513 67 279 11.3 22.6 0.00 0.00 0.00 1 1011.9
20260503195013 67 306 13.9 22.6 0.00 0.00 0.00 1 1011.9
20260503194534 67 324 13.9 19.1 0.00 0.00 0.00 1 1011.7
20260503194014 67 313 10.4 17.4 0.00 0.00 0.00 1 1011.8
20260503193512 66 290 10.4 20.0 0.00 0.00 0.00 1 1011.8
20260503193030 66 355 13.0 20.9 0.00 0.00 0.00 1 1011.8
20260503192514 67 340 13.9 20.0 0.00 0.00 0.00 1 1011.8
20260503192013 66 293 13.0 17.4 0.00 0.00 0.00 1 1012.1
20260503191538 66 311 13.0 22.6 0.00 0.00 0.00 1 1012.1
20260503191014 67 329 13.9 22.6 0.00 0.00 0.00 1 1011.9
20260503190513 66 293 9.6 14.8 0.00 0.00 0.00 1 1012.3
20260503190041 66 338 9.6 17.4 0.00 0.00 0.00 1 1012.4
20260503185510 66 338 13.9 20.0 0.00 0.00 0.00 1 1012.4
20260503185016 64 350 11.3 20.0 0.00 0.00 0.00 1 1012.5
20260503184533 65 327 15.6 20.0 0.00 0.00 0.00 1 1012.4
20260503184012 65 316 12.2 18.2 0.00 0.00 0.00 1 1012.4
20260503183512 64 334 12.2 18.2 0.00 0.00 0.00 1 1012.6
20260503183040 64 315 11.3 14.8 0.00 0.00 0.00 1 1012.8
20260503182513 65 340 9.6 14.8 0.00 0.00 0.00 1 1012.7
20260503182011 65 339 11.3 21.7 0.00 0.00 0.00 1 1012.6
20260503181552 65 327 13.0 21.7 0.00 0.00 0.00 1 1012.7
20260503181011 64 343 9.6 15.6 0.00 0.00 0.00 1 1012.8
20260503180513 65 298 10.4 15.6 0.00 0.00 0.00 1 1013.0
20260503180045 64 360 9.6 17.4 0.00 0.00 0.00 1 1013.1
20260503175516 64 325 9.6 14.8 0.00 0.00 0.00 1 1013.1
20260503175014 65 340 8.7 14.8 0.00 0.00 0.00 1 1013.0
20260503174534 64 335 11.3 17.4 0.00 0.00 0.00 1 1013.1
20260503174015 64 321 12.2 19.1 0.00 0.00 0.00 1 1013.1
20260503173511 64 5 10.4 19.1 0.00 0.00 0.00 1 1013.1
20260503173031 64 355 11.3 19.1 0.00 0.00 0.00 1 1013.1
20260503172511 63 327 14.8 20.0 0.00 0.00 0.00 1 1013.0
20260503172011 63 345 13.9 20.0 0.00 0.00 0.00 1 1013.1
20260503171533 63 355 13.9 19.1 0.00 0.00 0.00 1 1013.3
20260503171014 63 325 13.9 18.2 0.00 0.00 0.00 1 1013.2
20260503170512 63 343 13.9 18.2 0.00 0.00 0.00 1 1013.1
20260503151012 59 338 13.9 17.4 0.00 0.00 0.00 1 1013.3
20260503150514 58 340 12.2 19.1 0.00 0.00 0.00 1 1013.4
20260503131014 46 289 3.5 6.1 0.00 0.00 0.00 1 1014.2
20260503130515 45 286 4.3 5.2 0.00 0.00 0.00 1 1014.1
20260503110523 38 338 3.5 5.2 0.00 0.00 0.00 1 1014.9
20260503081553 41 328 2.6 4.3 0.00 0.00 0.00 1 1016.1
20260503081016 42 303 2.6 4.3 0.00 0.00 0.00 1 1016.1
20260503080514 44 269 0.9 5.2 0.00 0.00 0.00 1 1016.1
20260503072518 37 332 3.5 5.2 0.00 0.00 0.00 1 1016.2
20260503072015 37 332 1.7 5.2 0.00 0.00 0.00 1 1016.1
20260503071551 37 332 3.5 5.2 0.00 0.00 0.00 1 1016.1
20260503071015 38 332 2.6 3.5 0.00 0.00 0.00 1 1016.1
20260503070515 39 332 0.9 2.6 0.00 0.00 0.00 1 1016.1
20260503055015 41 332 3.5 4.3 0.00 0.00 0.00 1 1016.5
20260503054547 41 341 1.7 3.5 0.00 0.00 0.00 1 1016.4
20260503054015 41 341 1.7 5.2 0.00 0.00 0.00 1 1016.4
20260503053519 40 341 2.6 5.2 0.00 0.00 0.00 1 1016.6
20260503053050 39 5 2.6 4.3 0.00 0.00 0.00 1 1016.6
20260503052519 40 9 3.5 4.3 0.00 0.00 0.00 1 1016.6